Location: Gradaro
(45.0833°N, 10.8833°E)
Time: 15:11:10
(UTC+00:00)

CRYOSAT 2 - Pass Details

Date: 29 November 2020
Orbit: 714 x 724 km, 92.0° (Epoch: 25 January)

Event Time Altitude Azimuth Distance (km) Brightness Sun altitude
Rises 04:24:55 0° 177° (S) 3,105 7.8 -22.0°
Reaches altitude 10° 04:27:11 10° 179° (S) 2,191 7.0 -21.6°
Maximum altitude 04:32:02 77° 265° (W) 740 4.2 -20.7°
Drops below altitude 10° 04:36:56 10° 353° (N) 2,213 6.7 -19.9°
Sets 04:39:14 0° 354° (N) 3,140 7.5 -19.5°
